FREQUENCY,Transmission
 1455000000 ,-038.100
 1455250000 ,-038.131
 1455500000 ,-038.166
 1455750000 ,-038.207
 1456000000 ,-038.250
 1456250000 ,-038.299
 1456500000 ,-038.352
 1456750000 ,-038.412
 1457000000 ,-038.480
 1457250000 ,-038.547
 1457500000 ,-038.621
 1457750000 ,-038.691
 1458000000 ,-038.766
 1458250000 ,-038.838
 1458500000 ,-038.918
 1458750000 ,-038.996
 1459000000 ,-039.076
 1459250000 ,-039.156
 1459500000 ,-039.234
 1459750000 ,-039.316
 1460000000 ,-039.398
 1460250000 ,-039.480
 1460500000 ,-039.564
 1460750000 ,-039.646
 1461000000 ,-039.727
 1461250000 ,-039.799
 1461500000 ,-039.871
 1461750000 ,-039.938
 1462000000 ,-040.008
 1462250000 ,-040.068
 1462500000 ,-040.117
 1462750000 ,-040.162
 1463000000 ,-040.201
 1463250000 ,-040.223
 1463500000 ,-040.238
 1463750000 ,-040.244
 1464000000 ,-040.236
 1464250000 ,-040.221
 1464500000 ,-040.197
 1464750000 ,-040.162
 1465000000 ,-040.123
 1465250000 ,-040.078
 1465500000 ,-040.031
 1465750000 ,-039.982
 1466000000 ,-039.932
 1466250000 ,-039.873
 1466500000 ,-039.814
 1466750000 ,-039.762
 1467000000 ,-039.701
 1467250000 ,-039.643
 1467500000 ,-039.588
 1467750000 ,-039.533
 1468000000 ,-039.480
 1468250000 ,-039.432
 1468500000 ,-039.381
 1468750000 ,-039.332
 1469000000 ,-039.285
 1469250000 ,-039.236
 1469500000 ,-039.186
 1469750000 ,-039.135
 1470000000 ,-039.082
 1470250000 ,-039.031
 1470500000 ,-038.979
 1470750000 ,-038.934
 1471000000 ,-038.891
 1471250000 ,-038.854
 1471500000 ,-038.822
 1471750000 ,-038.791
 1472000000 ,-038.766
 1472250000 ,-038.746
 1472500000 ,-038.738
 1472750000 ,-038.734
 1473000000 ,-038.740
 1473250000 ,-038.752
 1473500000 ,-038.770
 1473750000 ,-038.795
 1474000000 ,-038.828
 1474250000 ,-038.869
 1474500000 ,-038.912
 1474750000 ,-038.967
 1475000000 ,-039.025
 1475250000 ,-039.086
 1475500000 ,-039.148
 1475750000 ,-039.219
 1476000000 ,-039.289
 1476250000 ,-039.365
 1476500000 ,-039.447
 1476750000 ,-039.527
 1477000000 ,-039.607
 1477250000 ,-039.686
 1477500000 ,-039.766
 1477750000 ,-039.850
 1478000000 ,-039.930
 1478250000 ,-040.010
 1478500000 ,-040.088
 1478750000 ,-040.166
 1479000000 ,-040.242
 1479250000 ,-040.314
 1479500000 ,-040.389
 1479750000 ,-040.463
 1480000000 ,-040.537
 1480250000 ,-040.611
 1480500000 ,-040.689
 1480750000 ,-040.766
 1481000000 ,-040.838
 1481250000 ,-040.918
 1481500000 ,-040.998
 1481750000 ,-041.076
 1482000000 ,-041.156
 1482250000 ,-041.240
 1482500000 ,-041.322
 1482750000 ,-041.402
 1483000000 ,-041.482
 1483250000 ,-041.557
 1483500000 ,-041.639
 1483750000 ,-041.713
 1484000000 ,-041.781
 1484250000 ,-041.846
 1484500000 ,-041.906
 1484750000 ,-041.957
 1485000000 ,-041.996
 1485250000 ,-042.033
 1485500000 ,-042.055
 1485750000 ,-042.070
 1486000000 ,-042.078
 1486250000 ,-042.074
 1486500000 ,-042.059
 1486750000 ,-042.035
 1487000000 ,-042.006
 1487250000 ,-041.967
 1487500000 ,-041.920
 1487750000 ,-041.859
 1488000000 ,-041.793
 1488250000 ,-041.717
 1488500000 ,-041.635
 1488750000 ,-041.543
 1489000000 ,-041.443
 1489250000 ,-041.342
 1489500000 ,-041.230
 1489750000 ,-041.115
 1490000000 ,-040.992
 1490250000 ,-040.863
 1490500000 ,-040.730
 1490750000 ,-040.596
 1491000000 ,-040.455
 1491250000 ,-040.311
 1491500000 ,-040.168
 1491750000 ,-040.021
 1492000000 ,-039.877
 1492250000 ,-039.732
 1492500000 ,-039.592
 1492750000 ,-039.445
 1493000000 ,-039.301
 1493250000 ,-039.148
 1493500000 ,-038.996
 1493750000 ,-038.836
 1494000000 ,-038.672
 1494250000 ,-038.512
 1494500000 ,-038.346
 1494750000 ,-038.172
 1495000000 ,-038.002
 1495250000 ,-037.820
 1495500000 ,-037.637
 1495750000 ,-037.445
 1496000000 ,-037.248
 1496250000 ,-037.043
 1496500000 ,-036.832
 1496750000 ,-036.611
 1497000000 ,-036.387
 1497250000 ,-036.152
 1497500000 ,-035.916
 1497750000 ,-035.672
 1498000000 ,-035.422
 1498250000 ,-035.164
 1498500000 ,-034.893
 1498750000 ,-034.604
 1499000000 ,-034.301
 1499250000 ,-033.975
 1499500000 ,-033.629
 1499750000 ,-033.256
 1500000000 ,-032.855
 1500250000 ,-032.426
 1500500000 ,-031.960
 1500750000 ,-031.461
 1501000000 ,-030.925
 1501250000 ,-030.355
 1501500000 ,-029.753
 1501750000 ,-029.115
 1502000000 ,-028.449
 1502250000 ,-027.755
 1502500000 ,-027.042
 1502750000 ,-026.312
 1503000000 ,-025.570
 1503250000 ,-024.821
 1503500000 ,-024.071
 1503750000 ,-023.328
 1504000000 ,-022.597
 1504250000 ,-021.882
 1504500000 ,-021.190
 1504750000 ,-020.521
 1505000000 ,-019.878
 1505250000 ,-019.263
 1505500000 ,-018.673
 1505750000 ,-018.106
 1506000000 ,-017.563
 1506250000 ,-017.037
 1506500000 ,-016.526
 1506750000 ,-016.027
 1507000000 ,-015.539
 1507250000 ,-015.061
 1507500000 ,-014.591
 1507750000 ,-014.130
 1508000000 ,-013.681
 1508250000 ,-013.240
 1508500000 ,-012.808
 1508750000 ,-012.384
 1509000000 ,-011.973
 1509250000 ,-011.578
 1509500000 ,-011.198
 1509750000 ,-010.837
 1510000000 ,-010.500
 1510250000 ,-010.188
 1510500000 ,-009.902
 1510750000 ,-009.646
 1511000000 ,-009.419
 1511250000 ,-009.220
 1511500000 ,-009.046
 1511750000 ,-008.895
 1512000000 ,-008.759
 1512250000 ,-008.634
 1512500000 ,-008.518
 1512750000 ,-008.408
 1513000000 ,-008.302
 1513250000 ,-008.199
 1513500000 ,-008.095
 1513750000 ,-007.989
 1514000000 ,-007.881
 1514250000 ,-007.770
 1514500000 ,-007.656
 1514750000 ,-007.538
 1515000000 ,-007.417
 1515250000 ,-007.291
 1515500000 ,-007.164
 1515750000 ,-007.036
 1516000000 ,-006.907
 1516250000 ,-006.780
 1516500000 ,-006.656
 1516750000 ,-006.536
 1517000000 ,-006.420
 1517250000 ,-006.307
 1517500000 ,-006.198
 1517750000 ,-006.093
 1518000000 ,-005.992
 1518250000 ,-005.892
 1518500000 ,-005.794
 1518750000 ,-005.698
 1519000000 ,-005.603
 1519250000 ,-005.508
 1519500000 ,-005.414
 1519750000 ,-005.320
 1520000000 ,-005.226
 1520250000 ,-005.133
 1520500000 ,-005.041
 1520750000 ,-004.950
 1521000000 ,-004.860
 1521250000 ,-004.771
 1521500000 ,-004.685
 1521750000 ,-004.600
 1522000000 ,-004.516
 1522250000 ,-004.433
 1522500000 ,-004.353
 1522750000 ,-004.273
 1523000000 ,-004.195
 1523250000 ,-004.119
 1523500000 ,-004.045
 1523750000 ,-003.973
 1524000000 ,-003.903
 1524250000 ,-003.834
 1524500000 ,-003.768
 1524750000 ,-003.704
 1525000000 ,-003.641
 1525250000 ,-003.580
 1525500000 ,-003.522
 1525750000 ,-003.465
 1526000000 ,-003.409
 1526250000 ,-003.356
 1526500000 ,-003.304
 1526750000 ,-003.254
 1527000000 ,-003.206
 1527250000 ,-003.160
 1527500000 ,-003.114
 1527750000 ,-003.070
 1528000000 ,-003.027
 1528250000 ,-002.986
 1528500000 ,-002.946
 1528750000 ,-002.908
 1529000000 ,-002.872
 1529250000 ,-002.836
 1529500000 ,-002.802
 1529750000 ,-002.769
 1530000000 ,-002.738
 1530250000 ,-002.707
 1530500000 ,-002.677
 1530750000 ,-002.649
 1531000000 ,-002.622
 1531250000 ,-002.596
 1531500000 ,-002.570
 1531750000 ,-002.545
 1532000000 ,-002.521
 1532250000 ,-002.498
 1532500000 ,-002.476
 1532750000 ,-002.456
 1533000000 ,-002.435
 1533250000 ,-002.415
 1533500000 ,-002.396
 1533750000 ,-002.378
 1534000000 ,-002.360
 1534250000 ,-002.342
 1534500000 ,-002.325
 1534750000 ,-002.308
 1535000000 ,-002.292
 1535250000 ,-002.276
 1535500000 ,-002.261
 1535750000 ,-002.246
 1536000000 ,-002.233
 1536250000 ,-002.219
 1536500000 ,-002.207
 1536750000 ,-002.195
 1537000000 ,-002.183
 1537250000 ,-002.171
 1537500000 ,-002.160
 1537750000 ,-002.149
 1538000000 ,-002.139
 1538250000 ,-002.129
 1538500000 ,-002.120
 1538750000 ,-002.111
 1539000000 ,-002.102
 1539250000 ,-002.094
 1539500000 ,-002.086
 1539750000 ,-002.078
 1540000000 ,-002.071
 1540250000 ,-002.064
 1540500000 ,-002.057
 1540750000 ,-002.050
 1541000000 ,-002.045
 1541250000 ,-002.039
 1541500000 ,-002.033
 1541750000 ,-002.028
 1542000000 ,-002.024
 1542250000 ,-002.019
 1542500000 ,-002.015
 1542750000 ,-002.011
 1543000000 ,-002.009
 1543250000 ,-002.006
 1543500000 ,-002.003
 1543750000 ,-002.001
 1544000000 ,-001.999
 1544250000 ,-001.998
 1544500000 ,-001.997
 1544750000 ,-001.996
 1545000000 ,-001.996
 1545250000 ,-001.996
 1545500000 ,-001.996
 1545750000 ,-001.997
 1546000000 ,-001.998
 1546250000 ,-001.999
 1546500000 ,-002.001
 1546750000 ,-002.003
 1547000000 ,-002.005
 1547250000 ,-002.007
 1547500000 ,-002.010
 1547750000 ,-002.013
 1548000000 ,-002.017
 1548250000 ,-002.020
 1548500000 ,-002.023
 1548750000 ,-002.027
 1549000000 ,-002.031
 1549250000 ,-002.036
 1549500000 ,-002.040
 1549750000 ,-002.045
 1550000000 ,-002.050
 1550250000 ,-002.054
 1550500000 ,-002.059
 1550750000 ,-002.064
 1551000000 ,-002.070
 1551250000 ,-002.076
 1551500000 ,-002.081
 1551750000 ,-002.086
 1552000000 ,-002.092
 1552250000 ,-002.098
 1552500000 ,-002.105
 1552750000 ,-002.111
 1553000000 ,-002.117
 1553250000 ,-002.124
 1553500000 ,-002.130
 1553750000 ,-002.137
 1554000000 ,-002.143
 1554250000 ,-002.150
 1554500000 ,-002.157
 1554750000 ,-002.164
 1555000000 ,-002.171
 1555250000 ,-002.178
 1555500000 ,-002.185
 1555750000 ,-002.192
 1556000000 ,-002.199
 1556250000 ,-002.206
 1556500000 ,-002.213
 1556750000 ,-002.220
 1557000000 ,-002.227
 1557250000 ,-002.233
 1557500000 ,-002.239
 1557750000 ,-002.245
 1558000000 ,-002.252
 1558250000 ,-002.258
 1558500000 ,-002.264
 1558750000 ,-002.271
 1559000000 ,-002.277
 1559250000 ,-002.283
 1559500000 ,-002.289
 1559750000 ,-002.295
 1560000000 ,-002.300
 1560250000 ,-002.306
 1560500000 ,-002.312
 1560750000 ,-002.318
 1561000000 ,-002.324
 1561250000 ,-002.330
 1561500000 ,-002.336
 1561750000 ,-002.342
 1562000000 ,-002.348
 1562250000 ,-002.354
 1562500000 ,-002.360
 1562750000 ,-002.366
 1563000000 ,-002.371
 1563250000 ,-002.378
 1563500000 ,-002.384
 1563750000 ,-002.390
 1564000000 ,-002.397
 1564250000 ,-002.403
 1564500000 ,-002.409
 1564750000 ,-002.415
 1565000000 ,-002.421
 1565250000 ,-002.427
 1565500000 ,-002.433
 1565750000 ,-002.440
 1566000000 ,-002.447
 1566250000 ,-002.454
 1566500000 ,-002.461
 1566750000 ,-002.468
 1567000000 ,-002.477
 1567250000 ,-002.484
 1567500000 ,-002.492
 1567750000 ,-002.500
 1568000000 ,-002.508
 1568250000 ,-002.516
 1568500000 ,-002.525
 1568750000 ,-002.534
 1569000000 ,-002.544
 1569250000 ,-002.554
 1569500000 ,-002.565
 1569750000 ,-002.576
 1570000000 ,-002.588
 1570250000 ,-002.600
 1570500000 ,-002.614
 1570750000 ,-002.628
 1571000000 ,-002.643
 1571250000 ,-002.658
 1571500000 ,-002.674
 1571750000 ,-002.691
 1572000000 ,-002.709
 1572250000 ,-002.728
 1572500000 ,-002.749
 1572750000 ,-002.770
 1573000000 ,-002.792
 1573250000 ,-002.815
 1573500000 ,-002.839
 1573750000 ,-002.863
 1574000000 ,-002.889
 1574250000 ,-002.914
 1574500000 ,-002.940
 1574750000 ,-002.966
 1575000000 ,-002.992
 1575250000 ,-003.019
 1575500000 ,-003.046
 1575750000 ,-003.072
 1576000000 ,-003.099
 1576250000 ,-003.126
 1576500000 ,-003.152
 1576750000 ,-003.179
 1577000000 ,-003.205
 1577250000 ,-003.231
 1577500000 ,-003.256
 1577750000 ,-003.281
 1578000000 ,-003.307
 1578250000 ,-003.332
 1578500000 ,-003.358
 1578750000 ,-003.383
 1579000000 ,-003.408
 1579250000 ,-003.433
 1579500000 ,-003.457
 1579750000 ,-003.481
 1580000000 ,-003.505
 1580250000 ,-003.529
 1580500000 ,-003.552
 1580750000 ,-003.575
 1581000000 ,-003.597
 1581250000 ,-003.620
 1581500000 ,-003.644
 1581750000 ,-003.668
 1582000000 ,-003.694
 1582250000 ,-003.719
 1582500000 ,-003.745
 1582750000 ,-003.772
 1583000000 ,-003.801
 1583250000 ,-003.832
 1583500000 ,-003.865
 1583750000 ,-003.901
 1584000000 ,-003.938
 1584250000 ,-003.979
 1584500000 ,-004.023
 1584750000 ,-004.070
 1585000000 ,-004.121
 1585250000 ,-004.176
 1585500000 ,-004.234
 1585750000 ,-004.297
 1586000000 ,-004.364
 1586250000 ,-004.435
 1586500000 ,-004.510
 1586750000 ,-004.589
 1587000000 ,-004.672
 1587250000 ,-004.760
 1587500000 ,-004.853
 1587750000 ,-004.951
 1588000000 ,-005.054
 1588250000 ,-005.163
 1588500000 ,-005.278
 1588750000 ,-005.399
 1589000000 ,-005.527
 1589250000 ,-005.662
 1589500000 ,-005.804
 1589750000 ,-005.953
 1590000000 ,-006.111
 1590250000 ,-006.277
 1590500000 ,-006.452
 1590750000 ,-006.635
 1591000000 ,-006.828
 1591250000 ,-007.030
 1591500000 ,-007.240
 1591750000 ,-007.459
 1592000000 ,-007.688
 1592250000 ,-007.927
 1592500000 ,-008.175
 1592750000 ,-008.434
 1593000000 ,-008.704
 1593250000 ,-008.984
 1593500000 ,-009.274
 1593750000 ,-009.573
 1594000000 ,-009.883
 1594250000 ,-010.205
 1594500000 ,-010.539
 1594750000 ,-010.883
 1595000000 ,-011.236
 1595250000 ,-011.601
 1595500000 ,-011.976
 1595750000 ,-012.361
 1596000000 ,-012.759
 1596250000 ,-013.167
 1596500000 ,-013.585
 1596750000 ,-014.013
 1597000000 ,-014.450
 1597250000 ,-014.896
 1597500000 ,-015.349
 1597750000 ,-015.812
 1598000000 ,-016.285
 1598250000 ,-016.766
 1598500000 ,-017.252
 1598750000 ,-017.744
 1599000000 ,-018.244
 1599250000 ,-018.753
 1599500000 ,-019.271
 1599750000 ,-019.795
 1600000000 ,-020.327
 1600250000 ,-020.866
 1600500000 ,-021.414
 1600750000 ,-021.967
 1601000000 ,-022.527
 1601250000 ,-023.095
 1601500000 ,-023.669
 1601750000 ,-024.249
 1602000000 ,-024.836
 1602250000 ,-025.429
 1602500000 ,-026.027
 1602750000 ,-026.633
 1603000000 ,-027.245
 1603250000 ,-027.860
 1603500000 ,-028.480
 1603750000 ,-029.106
 1604000000 ,-029.737
 1604250000 ,-030.382
 1604500000 ,-031.036
 1604750000 ,-031.696
 1605000000 ,-032.361
 1605250000 ,-033.037
 1605500000 ,-033.727
 1605750000 ,-034.428
 1606000000 ,-035.137
 1606250000 ,-035.852
 1606500000 ,-036.572
 1606750000 ,-037.309
 1607000000 ,-038.057
 1607250000 ,-038.818
 1607500000 ,-039.613
 1607750000 ,-040.436
 1608000000 ,-041.270
 1608250000 ,-042.115
 1608500000 ,-042.977
 1608750000 ,-043.887
 1609000000 ,-044.852
 1609250000 ,-045.896
 1609500000 ,-047.041
 1609750000 ,-048.338
 1610000000 ,-049.680
 1610250000 ,-050.934
 1610500000 ,-052.037
 1610750000 ,-052.891
 1611000000 ,-053.596
 1611250000 ,-054.158
 1611500000 ,-054.590
 1611750000 ,-054.885
 1612000000 ,-055.037
 1612250000 ,-055.076
 1612500000 ,-055.004
 1612750000 ,-054.834
 1613000000 ,-054.520
 1613250000 ,-054.068
 1613500000 ,-053.455
 1613750000 ,-052.670
 1614000000 ,-051.646
 1614250000 ,-050.502
 1614500000 ,-049.377
 1614750000 ,-048.338
 1615000000 ,-047.480
 1615250000 ,-046.701
 1615500000 ,-045.990
 1615750000 ,-045.336
 1616000000 ,-044.740
 1616250000 ,-044.215
 1616500000 ,-043.744
 1616750000 ,-043.324
 1617000000 ,-042.928
 1617250000 ,-042.584
 1617500000 ,-042.279
 1617750000 ,-042.021
 1618000000 ,-041.799
 1618250000 ,-041.617
 1618500000 ,-041.480
 1618750000 ,-041.385
 1619000000 ,-041.334
 1619250000 ,-041.322
 1619500000 ,-041.352
 1619750000 ,-041.422
 1620000000 ,-041.531
 1620250000 ,-041.678
 1620500000 ,-041.848
 1620750000 ,-042.039
 1621000000 ,-042.258
 1621250000 ,-042.494
 1621500000 ,-042.738
 1621750000 ,-042.998
 1622000000 ,-043.260
 1622250000 ,-043.527
 1622500000 ,-043.797
 1622750000 ,-044.053
 1623000000 ,-044.291
 1623250000 ,-044.512
 1623500000 ,-044.719
 1623750000 ,-044.904
 1624000000 ,-045.076
 1624250000 ,-045.229
 1624500000 ,-045.365
 1624750000 ,-045.482
 1625000000 ,-045.586
 1625250000 ,-045.666
 1625500000 ,-045.734
 1625750000 ,-045.787
 1626000000 ,-045.826
 1626250000 ,-045.871
 1626500000 ,-045.895
 1626750000 ,-045.904
 1627000000 ,-045.908
 1627250000 ,-045.900
 1627500000 ,-045.893
 1627750000 ,-045.873
 1628000000 ,-045.859
 1628250000 ,-045.834
 1628500000 ,-045.805
 1628750000 ,-045.764
 1629000000 ,-045.723
 1629250000 ,-045.678
 1629500000 ,-045.643
 1629750000 ,-045.600
 1630000000 ,-045.572
 1630250000 ,-045.537
 1630500000 ,-045.486
 1630750000 ,-045.438
 1631000000 ,-045.389
 1631250000 ,-045.338
 1631500000 ,-045.287
 1631750000 ,-045.225
 1632000000 ,-045.172
 1632250000 ,-045.107
 1632500000 ,-045.039
 1632750000 ,-044.963
 1633000000 ,-044.895
 1633250000 ,-044.814
 1633500000 ,-044.727
 1633750000 ,-044.629
 1634000000 ,-044.539
 1634250000 ,-044.439
 1634500000 ,-044.338
 1634750000 ,-044.236
 1635000000 ,-044.129
 1635250000 ,-044.020
 1635500000 ,-043.920
 1635750000 ,-043.824
 1636000000 ,-043.734
 1636250000 ,-043.631
 1636500000 ,-043.535
 1636750000 ,-043.445
 1637000000 ,-043.365
 1637250000 ,-043.275
 1637500000 ,-043.193
 1637750000 ,-043.115
 1638000000 ,-043.043
 1638250000 ,-042.961
 1638500000 ,-042.879
 1638750000 ,-042.801
 1639000000 ,-042.725
 1639250000 ,-042.652
 1639500000 ,-042.574
 1639750000 ,-042.498
 1640000000 ,-042.424
 1640250000 ,-042.350
 1640500000 ,-042.277
 1640750000 ,-042.203
 1641000000 ,-042.137
 1641250000 ,-042.074
 1641500000 ,-042.021
 1641750000 ,-041.963
 1642000000 ,-041.908
 1642250000 ,-041.857
 1642500000 ,-041.813
 1642750000 ,-041.770
 1643000000 ,-041.729
 1643250000 ,-041.691
 1643500000 ,-041.668
 1643750000 ,-041.648
 1644000000 ,-041.621
 1644250000 ,-041.594
 1644500000 ,-041.568
 1644750000 ,-041.551
 1645000000 ,-041.537
 1645250000 ,-041.514
 1645500000 ,-041.486
 1645750000 ,-041.465
 1646000000 ,-041.451
 1646250000 ,-041.434
 1646500000 ,-041.416
 1646750000 ,-041.402
 1647000000 ,-041.398
 1647250000 ,-041.398
 1647500000 ,-041.393
 1647750000 ,-041.389
 1648000000 ,-041.395
 1648250000 ,-041.412
 1648500000 ,-041.436
 1648750000 ,-041.467
 1649000000 ,-041.506
 1649250000 ,-041.549
 1649500000 ,-041.602
 1649750000 ,-041.664
 1650000000 ,-041.732
 1650250000 ,-041.816
 1650500000 ,-041.914
 1650750000 ,-042.016
 1651000000 ,-042.127
 1651250000 ,-042.242
 1651500000 ,-042.361
 1651750000 ,-042.486
 1652000000 ,-042.633
 1652250000 ,-042.789
 1652500000 ,-042.953
 1652750000 ,-043.129
 1653000000 ,-043.318
 1653250000 ,-043.498
 1653500000 ,-043.674
 1653750000 ,-043.848
 1654000000 ,-044.012
 1654250000 ,-044.166
 1654500000 ,-044.299
 1654750000 ,-044.428
